Total_Precipitation_Accumulation
0.74 0.73 0.77 0.79 0.81 0.86 0.92 0.95 1.00 1.05 1.11 1.11 1.08 1.03 0.93 0.86 0.84 0.84 0.88 0.98 0.97 0.93 0.98 0.96 0.96 0.99 1.04 1.05 1.06 1.10 1.27 1.42 1.31 1.26 1.14 1.00 0.87 0.76 0.64 0.58 0.49 0.41 0.37
0.72 0.72 0.75 0.78 0.77 0.76 0.77 0.77 0.79 0.83 0.85 0.86 0.86 0.90 0.93 0.91 0.84 0.82 0.81 0.81 0.85 0.86 0.90 0.95 0.96 1.02 1.03 0.95 0.98 1.05 1.22 1.41 1.47 1.56 1.61 1.35 1.06 0.87 0.80 0.67 0.47 0.36 0.37
0.66 0.71 0.76 0.75 0.72 0.74 0.77 0.77 0.75 0.74 0.74 0.73 0.74 0.74 0.77 0.86 0.95 0.94 0.91 0.93 0.96 0.89 0.92 0.99 0.97 0.95 0.93 0.89 0.93 1.02 1.14 1.28 1.39 1.46 1.56 1.38 1.18 0.94 0.92 0.77 0.60 0.53 0.38
0.57 0.71 0.83 0.88 0.87 0.87 0.81 0.81 0.79 0.75 0.75 0.73 0.69 0.69 0.71 0.72 0.80 0.92 0.95 0.94 0.90 0.85 0.85 0.85 0.81 0.80 0.80 0.79 0.80 0.90 1.00 1.06 1.14 1.19 1.29 1.32 1.33 1.27 1.21 1.04 0.89 0.76 0.63
0.57 0.78 0.88 0.86 0.80 0.78 0.75 0.81 0.78 0.70 0.69 0.71 0.63 0.61 0.66 0.70 0.69 0.70 0.79 0.82 0.79 0.76 0.77 0.70 0.60 0.62 0.66 0.62 0.63 0.75 0.84 0.91 0.99 1.05 1.16 1.29 1.36 1.40 1.31 1.24 1.10 1.01 0.86
0.53 0.64 0.67 0.71 0.73 0.68 0.63 0.60 0.61 0.62 0.61 0.61 0.56 0.54 0.54 0.52 0.56 0.52 0.53 0.59 0.60 0.58 0.60 0.61 0.55 0.50 0.49 0.51 0.50 0.53 0.59 0.67 0.81 0.98 1.11 1.28 1.33 1.27 1.34 1.31 1.26 1.20 1.15
0.45 0.49 0.56 0.67 0.69 0.61 0.52 0.54 0.59 0.58 0.56 0.55 0.50 0.46 0.43 0.42 0.38 0.35 0.36 0.44 0.47 0.45 0.45 0.47 0.45 0.43 0.40 0.36 0.42 0.49 0.49 0.50 0.54 0.74 0.92 0.96 0.95 0.90 1.07 1.26 1.23 1.21 1.27
0.46 0.52 0.57 0.68 0.68 0.62 0.58 0.56 0.55 0.54 0.54 0.53 0.48 0.44 0.43 0.41 0.36 0.32 0.29 0.29 0.37 0.41 0.38 0.38 0.39 0.41 0.38 0.35 0.36 0.42 0.41 0.39 0.39 0.42 0.47 0.49 0.53 0.60 0.76 1.02 1.21 1.19 1.26
0.47 0.57 0.67 0.74 0.72 0.67 0.63 0.58 0.55 0.54 0.50 0.47 0.48 0.48 0.44 0.41 0.33 0.29 0.29 0.33 0.37 0.37 0.36 0.34 0.33 0.35 0.39 0.37 0.35 0.36 0.36 0.37 0.35 0.34 0.33 0.37 0.40 0.41 0.47 0.63 0.85 1.14 1.46
0.57 0.64 0.70 0.73 0.75 0.72 0.68 0.64 0.59 0.58 0.52 0.46 0.47 0.48 0.45 0.45 0.35 0.25 0.24 0.32 0.40 0.41 0.43 0.41 0.34 0.30 0.32 0.28 0.27 0.30 0.30 0.30 0.28 0.30 0.32 0.32 0.34 0.37 0.35 0.41 0.51 0.73 1.06
0.60 0.67 0.74 0.80 0.76 0.73 0.73 0.74 0.70 0.66 0.65 0.57 0.49 0.48 0.47 0.45 0.37 0.26 0.23 0.31 0.41 0.46 0.45 0.43 0.40 0.33 0.27 0.24 0.23 0.23 0.26 0.24 0.25 0.27 0.31 0.32 0.32 0.33 0.32 0.30 0.36 0.43 0.55
0.64 0.71 0.81 0.87 0.73 0.68 0.79 0.80 0.78 0.78 0.77 0.72 0.65 0.57 0.52 0.50 0.40 0.29 0.24 0.29 0.39 0.48 0.51 0.46 0.37 0.33 0.31 0.28 0.25 0.24 0.25 0.23 0.23 0.27 0.30 0.32 0.32 0.31 0.32 0.30 0.32 0.37 0.43
0.72 0.80 0.83 0.85 0.88 0.90 0.86 0.85 0.85 0.82 0.83 0.81 0.79 0.74 0.67 0.64 0.57 0.41 0.32 0.31 0.38 0.46 0.50 0.54 0.48 0.33 0.29 0.32 0.33 0.28 0.22 0.21 0.23 0.24 0.27 0.30 0.28 0.26 0.26 0.30 0.34 0.35 0.37
0.82 0.86 0.89 0.92 0.93 0.96 1.00 0.97 0.93 0.88 0.89 0.90 0.85 0.81 0.79 0.78 0.71 0.58 0.48 0.41 0.43 0.44 0.47 0.50 0.54 0.46 0.35 0.36 0.40 0.34 0.26 0.25 0.25 0.23 0.23 0.27 0.27 0.25 0.25 0.26 0.29 0.34 0.39
0.91 0.94 0.96 0.98 1.00 1.02 1.02 0.99 0.94 0.92 0.84 0.86 0.86 0.80 0.81 0.81 0.74 0.65 0.61 0.55 0.52 0.51 0.49 0.52 0.53 0.55 0.47 0.42 0.43 0.39 0.35 0.34 0.32 0.29 0.24 0.26 0.29 0.28 0.27 0.24 0.24 0.27 0.34
1.02 0.95 0.94 0.92 0.95 0.98 0.97 0.84 0.68 0.64 0.59 0.56 0.59 0.62 0.62 0.58 0.53 0.51 0.53 0.52 0.53 0.55 0.52 0.56 0.60 0.61 0.56 0.53 0.50 0.47 0.47 0.41 0.36 0.33 0.27 0.24 0.26 0.27 0.25 0.22 0.21 0.22 0.24
0.99 0.95 0.89 0.83 0.83 0.82 0.86 0.86 0.77 0.66 0.62 0.56 0.46 0.42 0.45 0.42 0.38 0.39 0.45 0.50 0.53 0.56 0.55 0.58 0.64 0.63 0.61 0.60 0.54 0.48 0.52 0.46 0.40 0.37 0.31 0.27 0.26 0.25 0.24 0.21 0.21 0.20 0.22
0.93 0.86 0.82 0.79 0.77 0.74 0.74 0.76 0.76 0.78 0.78 0.68 0.53 0.45 0.41 0.34 0.31 0.32 0.41 0.51 0.54 0.54 0.58 0.61 0.66 0.64 0.63 0.61 0.55 0.52 0.54 0.47 0.41 0.38 0.32 0.26 0.24 0.24 0.24 0.21 0.18 0.17 0.18
0.97 0.85 0.77 0.72 0.71 0.72 0.70 0.71 0.72 0.76 0.79 0.77 0.64 0.56 0.47 0.35 0.31 0.33 0.37 0.42 0.45 0.48 0.54 0.58 0.59 0.60 0.61 0.57 0.49 0.48 0.51 0.45 0.37 0.32 0.28 0.25 0.22 0.22 0.23 0.22 0.20 0.19 0.17
0.96 0.85 0.78 0.70 0.67 0.71 0.74 0.71 0.69 0.75 0.77 0.75 0.68 0.55 0.41 0.34 0.31 0.32 0.34 0.35 0.37 0.41 0.47 0.50 0.48 0.49 0.50 0.46 0.39 0.38 0.43 0.41 0.33 0.30 0.27 0.24 0.21 0.19 0.20 0.21 0.20 0.20 0.19
0.92 0.83 0.74 0.66 0.63 0.64 0.69 0.69 0.65 0.69 0.72 0.68 0.60 0.48 0.33 0.27 0.27 0.28 0.30 0.31 0.32 0.35 0.38 0.41 0.39 0.39 0.37 0.36 0.32 0.29 0.34 0.33 0.27 0.23 0.22 0.20 0.17 0.15 0.14 0.15 0.16 0.16 0.16
0.91 0.88 0.78 0.69 0.64 0.62 0.63 0.65 0.65 0.64 0.65 0.64 0.54 0.39 0.31 0.28 0.26 0.24 0.24 0.23 0.23 0.26 0.29 0.32 0.32 0.30 0.29 0.28 0.24 0.21 0.23 0.23 0.20 0.17 0.15 0.14 0.12 0.12 0.11 0.11 0.12 0.14 0.13
0.87 0.87 0.80 0.70 0.62 0.61 0.59 0.62 0.65 0.61 0.56 0.55 0.47 0.35 0.29 0.28 0.24 0.21 0.20 0.18 0.18 0.20 0.21 0.23 0.22 0.20 0.19 0.19 0.17 0.15 0.14 0.14 0.12 0.09 0.08 0.08 0.07 0.08 0.08 0.08 0.09 0.11 0.12
0.84 0.83 0.77 0.68 0.61 0.59 0.57 0.59 0.58 0.49 0.42 0.41 0.39 0.30 0.28 0.26 0.20 0.17 0.14 0.12 0.13 0.13 0.12 0.13 0.13 0.12 0.13 0.14 0.14 0.12 0.10 0.09 0.07 0.05 0.04 0.03 0.04 0.04 0.04 0.05 0.06 0.07 0.08
0.80 0.78 0.75 0.68 0.62 0.55 0.52 0.51 0.49 0.42 0.35 0.32 0.32 0.28 0.25 0.21 0.17 0.15 0.10 0.10 0.10 0.09 0.08 0.09 0.10 0.11 0.12 0.11 0.11 0.10 0.08 0.06 0.05 0.04 0.03 0.02 0.03 0.03 0.04 0.04 0.05 0.05 0.06
0.75 0.72 0.69 0.64 0.57 0.49 0.46 0.45 0.42 0.35 0.29 0.25 0.25 0.24 0.21 0.19 0.17 0.14 0.11 0.10 0.09 0.08 0.07 0.07 0.09 0.10 0.10 0.09 0.08 0.07 0.05 0.04 0.04 0.04 0.04 0.03 0.03 0.04 0.04 0.04 0.03 0.04 0.04